Weather History for LGLM - April, 2013

Change the Weather History Date:

Friday, April 26, 2013

  Actual Average Record
Temperature  
Mean Temperature 62 °F -  
Max Temperature 77 °F 70 °F 77 °F (2013)
Min Temperature 48 °F 54 °F 41 °F (1997)
Degree Days  
Heating Degree Days 2    
Growing Degree Days 12 (Base 50)    
Moisture  
Dew Point 54 °F    
Average Humidity 71    
Maximum Humidity 94    
Minimum Humidity 34    
Precipitation  
Precipitation 0.00 in 0.03 in - ()
Sea Level Pressure  
Sea Level Pressure 30.09 in    
Wind  
Wind Speed 1 mph ()    
Max Wind Speed 4 mph    
Max Gust Speed -    
Visibility 6.0 miles    
Events      
Averages and records for this station are not official NWS values.
T = Trace of Precipitation, MM = Missing Value Source: Averaged Metar Reports

Daily Weather History Graph

Daily Weather History Graph

Search for Another Location

Airport or City:

Trip Planner

Search our weather history database for the weather conditions in past years. The results will help you decide how hot, cold, wet, or windy it might be!

Date:

Astronomy

Apr. 26, 2013 Rise Set
Actual Time 6:25 AM EEST 8:08 PM EEST
Civil Twilight 5:56 AM EEST 8:37 PM EEST
Nautical Twilight 5:22 AM EEST 9:12 PM EEST
Astronomical Twilight 4:44 AM EEST 9:49 PM EEST
Moon 9:09 PM EEST (4/26) 6:38 AM EEST (4/26)
Length of Visible Light 14h 40m
Length of Day
13h 42m
Full, 100% of the Moon is Illuminated
Apr 26
Full
May 2
Last Quarter
May 10
New
May 18
First Quarter
May 25
Full

Hourly Weather History & Observations

Time (EEST) Temp. Dew Point Humidity Pressure Visibility Wind Dir Wind Speed Gust Speed Precip Events Conditions
12:20 AM 55.4 °F 51.8 °F 88% 30.15 in - Calm Calm - N/A   Unknown
12:50 AM 53.6 °F 51.8 °F 94% 30.18 in - Variable 2.3 mph - N/A   Unknown
1:50 AM 53.6 °F 50.0 °F 88% 30.15 in - Variable 3.5 mph - N/A   Unknown
2:20 AM 53.6 °F 51.8 °F 94% 30.15 in - Calm Calm - N/A   Unknown
2:50 AM 53.6 °F 51.8 °F 94% 30.15 in - Calm Calm - N/A   Clear
3:00 AM 53 °F 51 °F 90% 30.17 in 6 mi Calm Calm - -  
3:20 AM 51.8 °F 48.2 °F 88% 30.15 in - Calm Calm - N/A   Unknown
3:50 AM 50.0 °F 48.2 °F 94% 30.15 in - Variable 1.2 mph - N/A   Unknown
4:20 AM 50.0 °F 48.2 °F 94% 30.12 in - Calm Calm - N/A   Unknown
4:50 AM 50.0 °F 48.2 °F 94% 30.12 in - Calm Calm - N/A   Unknown
5:20 AM 50.0 °F 46.4 °F 87% 30.12 in - Calm Calm - N/A   Unknown
5:50 AM 48.2 °F 46.4 °F 93% 30.12 in - Calm Calm - N/A   Clear
6:20 AM 50.0 °F 46.4 °F 87% 30.12 in - Calm Calm - N/A   Clear
6:50 AM 50.0 °F 46.4 °F 87% 30.12 in - Calm Calm - N/A   Clear
7:20 AM 53.6 °F 50.0 °F 88% 30.12 in - Calm Calm - N/A   Clear
7:50 AM 57.2 °F 53.6 °F 88% 30.12 in - Calm Calm - N/A   Clear
8:50 AM 64.4 °F 57.2 °F 77% 30.12 in - Calm Calm - N/A   Clear
9:00 AM 64 °F 57 °F 71% 30.14 in 6 mi Calm Calm - -  
9:20 AM 69.8 °F 57.2 °F 64% 30.12 in - Calm Calm - N/A   Clear
9:50 AM 73.4 °F 55.4 °F 53% 30.12 in - Calm Calm - N/A   Clear
10:20 AM 75.2 °F 50.0 °F 41% 30.12 in - Calm Calm - N/A   Clear
10:50 AM 73.4 °F 57.2 °F 57% 30.12 in - Variable 3.5 mph - N/A   Clear
11:20 AM 71.6 °F 55.4 °F 57% 30.12 in - Variable 3.5 mph - N/A   Clear
11:50 AM 75.2 °F 53.6 °F 47% 30.12 in - Variable 3.5 mph - N/A   Clear
12:20 PM 77.0 °F 53.6 °F 44% 30.12 in - Variable 3.5 mph - N/A   Clear
12:50 PM 77.0 °F 53.6 °F 44% 30.12 in - Variable 3.5 mph - N/A   Clear
1:20 PM 75.2 °F 59.0 °F 57% 30.09 in - Variable 3.5 mph - N/A   Clear
1:50 PM 75.2 °F 60.8 °F 61% 30.09 in - Variable 3.5 mph - N/A   Clear
2:20 PM 75.2 °F 57.2 °F 53% 30.09 in - Variable 3.5 mph - N/A   Clear
2:50 PM 77.0 °F 55.4 °F 47% 30.09 in - Variable 3.5 mph - N/A   Clear
3:00 PM 77 °F 55 °F 36% 30.09 in 6 mi 3.5 mph - -  
3:20 PM 77.0 °F 55.4 °F 47% 30.06 in - Variable 3.5 mph - N/A   Clear
3:50 PM 77.0 °F 57.2 °F 50% 30.06 in - Variable 3.5 mph - N/A   Clear
4:20 PM 77.0 °F 53.6 °F 44% 30.04 in - Variable 3.5 mph - N/A   Clear
4:50 PM 77.0 °F 51.8 °F 41% 30.04 in - Variable 3.5 mph - N/A   Clear
5:20 PM 77.0 °F 46.4 °F 34% 30.04 in - Variable 3.5 mph - N/A   Clear
5:50 PM 75.2 °F 55.4 °F 50% 30.04 in - Variable 3.5 mph - N/A   Clear
6:20 PM 75.2 °F 55.4 °F 50% 30.04 in - Variable 3.5 mph - N/A   Clear
6:50 PM 73.4 °F 57.2 °F 57% 30.01 in - Variable 3.5 mph - N/A   Clear
7:20 PM 69.8 °F 59.0 °F 68% 30.01 in - Variable 3.5 mph - N/A   Clear
7:50 PM 66.2 °F 59.0 °F 78% 30.01 in - Variable 3.5 mph - N/A   Clear
8:20 PM 64.4 °F 57.2 °F 77% 30.01 in - Variable 3.5 mph - N/A   Clear
8:50 PM 60.8 °F 57.2 °F 88% 30.01 in - Calm Calm - N/A   Clear
9:00 PM 61 °F 56 °F 80% 30.02 in 6 mi Calm Calm - -  
9:20 PM 60.8 °F 57.2 °F 88% 30.01 in - Calm Calm - N/A   Clear
9:50 PM 60.8 °F 57.2 °F 88% 30.01 in - Calm Calm - N/A   Clear
10:20 PM 59.0 °F 55.4 °F 88% 30.01 in - Calm Calm - N/A   Clear
10:50 PM 57.2 °F 55.4 °F 94% 30.01 in - Variable 3.5 mph - N/A   Clear
11:20 PM 59.0 °F 57.2 °F 94% 30.01 in - Variable 2.3 mph - N/A   Unknown
11:50 PM 57.2 °F 53.6 °F 88% 30.01 in - Variable 2.3 mph - N/A   Unknown